• Processing (Info)

  • MPEC 2014-G48 : 2014 GG35

    The following Minor Planet Electronic Circular may be linked-to from your own Web pages, but must not otherwise be redistributed electronically.

    A form allowing access to any MPEC is at the bottom of this page.


    Read MPEC 2014-G47 Read MPEC 2014-G49


    M.P.E.C. 2014-G48                                Issued 2014 Apr. 8, 16:47 UT
    
         The Minor Planet Electronic Circulars contain information on unusual
             minor planets and routine data on comets.  They are published
       on behalf of Commission 20 of the International Astronomical Union by the
              Minor Planet Center, Smithsonian Astrophysical Observatory,
                              Cambridge, MA 02138, U.S.A.
    
                 Prepared using the Tamkin Foundation Computer Network
    
                                  MPC@CFA.HARVARD.EDU
                URL https://www.minorplanetcenter.net/    ISSN 1523-6714
    
                                       2014 GG35
    
    Observations:
         K14G35G* C2014 04 05.47390 14 09 51.178-22 37 58.21         20.8 wLEG048F51
         K14G35G  C2014 04 05.48578 14 09 51.362-22 38 13.34         21.0 wLEG048F51
         K14G35G  C2014 04 05.49768 14 09 51.563-22 38 28.48         20.9 wLEG048F51
         K14G35G  C2014 04 05.50958 14 09 51.759-22 38 43.75         20.9 wLEG048F51
         K14G35G |C2014 04 06.27936 14 10 13.01 -22 54 49.7          21.4 VuEG048807
         K14G35G |C2014 04 06.28563 14 10 13.10 -22 54 57.7          21.0 VuEG048807
         K14G35G  C2014 04 06.28785 14 10 14.37 -22 55 26.3          20.8 RoEG048926
         K14G35G |C2014 04 06.29321 14 10 13.22 -22 55 07.5          21.1 VuEG048807
         K14G35G  C2014 04 06.30330 14 10 14.60 -22 55 45.5          21.3 RoEG048926
         K14G35G  C2014 04 06.32147 14 10 14.94 -22 56 09.4          20.9 RoEG048926
         K14G35G KC2014 04 07.43509 14 10 43.15 -23 20 09.4          20.2 RoEG048291
         K14G35G KC2014 04 07.44013 14 10 43.25 -23 20 15.3          19.9 RoEG048291
         K14G35G KC2014 04 07.44516 14 10 43.33 -23 20 21.9          20.1 RoEG048291
         K14G35G  C2014 04 08.13302814 11 00.24 -23 34 47.4          21.0 VqEG048K93
         K14G35G  C2014 04 08.13483414 11 00.28 -23 34 49.7          21.0 VqEG048K93
         K14G35G  C2014 04 08.14020914 11 00.38 -23 34 56.5          21.2 VqEG048K93
         K14G35G  C2014 04 08.14200414 11 00.41 -23 34 58.5          20.9 VqEG048K93
         K14G35G  C2014 04 08.14381214 11 00.44 -23 35 01.1          21.0 VqEG048K93
         K14G35G  C2014 04 08.14564014 11 00.49 -23 35 03.2          20.7 VqEG048K93
    
    Observer details:
    291 LPL/Spacewatch II.  Observer R. S. McMillan.  1.8-m f/2.7 reflector + CCD.
    807 Cerro Tololo.  Observers T. Linder, R. Holmes.  Measurers T. Linder,
        R. Holmes, K. Baker.  0.41-m f/11 Ritchey-Chretien + CCD.
    926 Tenagra II Observatory.  Observers M. Schwartz, P. R. Holvorcem.  0.81-m
        f/7 Ritchey-Chretien + CCD.
    F51 Pan-STARRS 1, Haleakala.  Observers N. Primak, A. Schultz, T. Goggia,
        M. Willman.  Measurer PS1 Science Consortium.  1.8-m Ritchey-Chretien
        + CCD.
    K93 Sutherland-LCOGT C.  Observer T. Lister.  1.0-m f/8 Ritchey-Chretien + CCD.
    
    Orbital elements:
    2014 GG35                                                Earth MOID = 0.2131 AU
    Epoch 2014 May 23.0 TT = JDT 2456800.5                  MPC
    M 358.05144              (2000.0)            P               Q
    n   0.39670070     Peri.  254.97606     -0.44403827     +0.89589515
    a   1.8344001      Node   348.63045     -0.79189582     -0.39981301
    e   0.3395887      Incl.    4.13328     -0.41920284     -0.19370451
    P   2.48           H   21.9           G   0.15           U   7
    Residuals in seconds of arc
    140405 F51  0.1+  0.1-    140406 807  0.3-  0.3-    140408 K93  0.2-  0.1-
    140405 F51  0.1-  0.0     140406 926  0.1+  0.5+    140408 K93  0.1-  0.2-
    140405 F51  0.0   0.1+    140406 926  0.6+  0.3+    140408 K93  0.2-  0.1+
    140405 F51  0.1-  0.0     140407 291  0.0   0.1-    140408 K93  0.2-  0.3-
    140406 807  0.0   0.1-    140407 291  0.3+  0.4+    140408 K93  0.0   0.1-
    140406 807  0.2-  0.2-    140407 291  0.3+  0.2+
    140406 926  0.6+  0.6-    140408 K93  0.3-  0.1-
    
    Ephemeris:
    2014 GG35                a,e,i = 1.83, 0.34, 4                   q = 1.2115
    Date    TT    R. A. (2000) Decl.     Delta      r     Elong.  Phase     V
    2014 03 09    13 48 03.3 -13 59 27   0.4930  1.3985   138.0    28.4    22.3
    ...
    2014 03 24    14 02 08.2 -18 25 20   0.3877  1.3410   147.8    23.3    21.6
    ...
    2014 04 01    14 07 31.1 -21 03 55   0.3422  1.3134   153.0    20.2    21.2
    ...
    2014 04 07    14 10 32.6 -23 10 22   0.3130  1.2943   156.7    17.8    20.9
    2014 04 08    14 10 58.3 -23 32 01   0.3086  1.2913   157.3    17.4    20.8
    2014 04 09    14 11 22.8 -23 53 48   0.3043  1.2883   157.8    17.1    20.8
    ...
    2014 04 15    14 13 26.8 -26 07 05   0.2807  1.2715   160.7    15.1    20.5
    ...
    2014 04 23    14 15 26.4 -29 07 57   0.2555  1.2518   162.9    13.6    20.2
    ...
    2014 05 08    14 19 35.5 -34 25 46   0.2264  1.2249   160.5    16.0    20.0
    
    A. U. Tomatic                (C) Copyright 2014 MPC           M.P.E.C. 2014-G48
    

    Read MPEC 2014-G47 Read MPEC 2014-G49


    MPEC number:

    Enter an MPEC number in one of the following forms:

    • 1997-B01 (the full form)
    • J97B01 (the packed version of the full form)
    • B01 (the abbreviated form)